Ketchikan, AK

10:51 PM AKDT on September 20, 2018 (GMT -0800)
Ketchikan International

Weather History for PAKT - November, 2017

Change the Weather History Date:

Wednesday, November 1, 2017

  Actual Average Record
Temperature  
Mean Temperature 44 °F -  
Max Temperature 50 °F 48 °F 63 °F (1970)
Min Temperature 39 °F 38 °F 23 °F (2012)
Degree Days  
Heating Degree Days 22    
Moisture  
Dew Point 27 °F    
Average Humidity 56    
Maximum Humidity 87    
Minimum Humidity 20    
Precipitation  
Precipitation 0.00 in - - ()
Sea Level Pressure  
Sea Level Pressure 30.08 in    
Wind  
Wind Speed 12 mph (NW)    
Max Wind Speed 23 mph    
Max Gust Speed 32 mph    
Visibility 10 miles    
Events      
Averages and records for this station are not official NWS values.
T = Trace of Precipitation, MM = Missing Value Source: NWS Daily Summary

Daily Weather History Graph

Daily Weather History Graph

Search for Another Location

Airport or City:

Astronomy

Nov. 01, 2017 Rise Set
Actual Time 7:52 AM AKDT 5:07 PM AKDT
Civil Twilight 7:13 AM AKDT 5:46 PM AKDT
Nautical Twilight 6:30 AM AKDT 6:29 PM AKDT
Astronomical Twilight 5:47 AM AKDT 7:11 PM AKDT
Moon 4:43 PM AKDT (11/1) 4:07 AM AKDT (11/1)
Length of Visible Light 10h 32m
Length of Day
9h 14m
Waxing Gibbous, 92% of the Moon is Illuminated
Nov 1
Waxing Gibbous
Nov 3
Full
Nov 10
Last Quarter
Nov 18
New
Nov 26
First Quarter

Hourly Weather History & Observations

Time (AKDT) Temp. Windchill Dew Point Humidity Pressure Visibility Wind Dir Wind Speed Gust Speed Precip Events Conditions
12:53 AM 46.0 °F 41.0 °F 41.0 °F 83% 30.01 in 10.0 mi WNW 10.4 mph - N/A   Clear
1:53 AM 45.0 °F 39.7 °F 41.0 °F 86% 30.02 in 10.0 mi NW 10.4 mph - N/A   Clear
2:53 AM 46.0 °F 40.6 °F 41.0 °F 83% 30.03 in 10.0 mi WNW 11.5 mph - N/A   Clear
3:53 AM 45.0 °F 41.8 °F 39.9 °F 82% 30.02 in 10.0 mi WNW 5.8 mph - N/A   Scattered Clouds
4:13 AM 45.0 °F 41.8 °F 39.9 °F 82% 30.02 in 10.0 mi Variable 5.8 mph - N/A   Mostly Cloudy
4:46 AM 44.1 °F - 39.9 °F 85% 30.02 in 10.0 mi Calm Calm - N/A   Scattered Clouds
4:53 AM 44.1 °F - 39.9 °F 85% 30.02 in 10.0 mi North - - N/A   Partly Cloudy
5:53 AM 43.0 °F 39.5 °F 39.0 °F 86% 30.03 in 10.0 mi WNW 5.8 mph - N/A   Clear
6:07 AM 43.0 °F 39.5 °F 39.0 °F 86% 30.02 in 10.0 mi WNW 5.8 mph - N/A   Clear
6:53 AM 44.6 °F 39.7 °F 39.2 °F 81% 30.02 in 10.0 mi NW 9.2 mph - N/A   Clear
7:53 AM 42.8 °F 37.0 °F 39.2 °F 87% 30.04 in 10.0 mi WNW 10.4 mph - N/A   Partly Cloudy
8:53 AM 42.8 °F 35.4 °F 37.4 °F 81% 30.04 in 10.0 mi NW 15.0 mph 19.6 mph N/A   Partly Cloudy
9:53 AM 44.6 °F 38.4 °F 35.6 °F 71% 30.04 in 10.0 mi WNW 12.7 mph 19.6 mph N/A   Clear
10:53 AM 46.4 °F 39.8 °F 33.8 °F 62% 30.04 in 10.0 mi NW 16.1 mph 24.2 mph N/A   Clear
11:53 AM 48.2 °F - 26.6 °F 43% 30.04 in 10.0 mi NNW 20.7 mph 28.8 mph N/A   Clear
12:53 PM 48.2 °F - 21.2 °F 34% 30.04 in 10.0 mi NNW 21.9 mph 31.1 mph N/A   Clear
1:53 PM 48.2 °F - 17.6 °F 30% 30.05 in 10.0 mi NNW 21.9 mph 32.2 mph N/A   Clear
2:53 PM 48.2 °F - 21.2 °F 34% 30.06 in 10.0 mi NNW 23.0 mph 32.2 mph N/A   Clear
3:53 PM 46.4 °F 39.8 °F 17.6 °F 32% 30.08 in 10.0 mi NNW 16.1 mph 27.6 mph N/A   Clear
4:53 PM 44.6 °F 38.4 °F 12.2 °F 27% 30.10 in 10.0 mi North 12.7 mph 20.7 mph N/A   Clear
5:53 PM 44.1 °F 36.5 °F 12.0 °F 27% 30.11 in 10.0 mi NNW 17.3 mph 25.3 mph N/A   Clear
6:53 PM 43.0 °F 34.5 °F 12.0 °F 28% 30.13 in 10.0 mi North 19.6 mph - N/A   Clear
7:53 PM 43.0 °F 33.8 °F 10.0 °F 26% 30.14 in 10.0 mi NNW 23.0 mph 31.1 mph N/A   Clear
8:53 PM 42.1 °F 33.3 °F 9.0 °F 26% 30.18 in 10.0 mi NNW 19.6 mph 32.2 mph N/A   Clear
9:53 PM 41.0 °F 32.2 °F 8.1 °F 26% 30.22 in 10.0 mi NNW 18.4 mph 25.3 mph N/A   Clear
10:53 PM 39.9 °F 32.5 °F 1.9 °F 20% 30.26 in 10.0 mi NNW 12.7 mph 24.2 mph N/A   Clear
11:53 PM 39.9 °F 37.8 °F 6.1 °F 25% 30.29 in 10.0 mi North 3.5 mph - N/A   Clear